This demonstration page uses our WeatherBlox Daily Observations layout. Learn more.

Left ArrowRight Arrow

34.16533, -84.80231

Hourly Observations for June 15, 2019

Temp ( °F °C ) Dew Point ( °F °C ) Humidity (%) Winds ( mph kmh ) Pressure ( in mb ) Visibility ( mi km ) Precip ( " mm )
12:53 am 00:53 Clear 58 14.4 54 12.2 87 87 Calm 30.14 1021 10 16 0.00 0.00
1:53 am 01:53 Clear 57 13.9 54 12.2 90 90 Calm 30.13 1020 10 16 0.00 0.00
2:53 am 02:53 Clear 57 13.9 53 11.7 87 87 Calm 30.11 1020 10 16 0.00 0.00
3:53 am 03:53 Clear 56 13.3 53 11.7 90 90 Calm 30.11 1020 10 16 0.00 0.00
4:53 am 04:53 Clear 57 13.9 53 11.7 87 87 Calm 30.12 1020 10 16 0.00 0.00
5:53 am 05:53 Clear 56 13.3 53 11.7 90 90 NNE 3 6 30.12 1020 10 16 0.00 0.00
6:53 am 06:53 Sunny 58 14.4 55 12.8 90 90 Calm 30.14 1021 10 16 0.00 0.00
7:53 am 07:53 Sunny 64 17.8 56 13.3 75 75 Calm 30.16 1022 10 16 0.00 0.00
8:53 am 08:53 Sunny 65 18.3 59 15 81 81 SE 5 7 30.17 1022 10 16 0.00 0.00
9:53 am 09:53 Sunny 68 20 61 16.1 78 78 Calm 30.16 1022 10 16 0.00 0.00
10:53 am 10:53 Sunny 77 25 64 17.8 64 64 VRB 5 7 30.14 1021 10 16 0.00 0.00
11:53 am 11:53 Sunny 80 26.7 63 17.2 56 56 S 8 13 30.13 1020 10 16 0.00 0.00
12:53 pm 12:53 Sunny 83 28.3 62 16.7 49 49 S 10 17 30.11 1020 10 16 0.00 0.00
1:53 pm 13:53 Partly Cloudy 84 28.9 61 16.1 46 46 S 7 11 30.10 1019 10 16 0.00 0.00
2:53 pm 14:53 Mostly Sunny 85 29.4 62 16.7 46 46 VRB 7 11 30.08 1019 10 16 0.00 0.00
3:53 pm 15:53 Mostly Cloudy 84 28.9 63 17.2 49 49 undefined N/A 30.08 1019 10 16 0.00 0.00
4:53 pm 16:53 Partly Cloudy 85 29.4 62 16.7 46 46 SSW 7 11 30.06 1018 10 16 0.00 0.00
5:53 pm 17:53 Sunny 83 28.3 63 17.2 51 51 S 7 11 30.04 1017 10 16 0.00 0.00
6:53 pm 18:53 Sunny 83 28.3 64 17.8 53 53 VRB 5 7 30.02 1017 10 16 0.00 0.00
7:53 pm 19:53 Sunny 81 27.2 65 18.3 58 58 S 5 7 30.02 1017 10 16 0.00 0.00
8:53 pm 20:53 Clear 73 22.8 67 19.4 81 81 Calm 30.03 1017 10 16 0.00 0.00
9:53 pm 21:53 Clear 71 21.7 65 18.3 81 81 S 5 7 30.03 1017 10 16 0.00 0.00
10:53 pm 22:53 Clear 71 21.7 64 17.8 79 79 S 5 7 30.04 1017 10 16 0.00 0.00
11:53 pm 23:53 Clear 72 22.2 63 17.2 73 73 S 6 9 30.04 1017 10 16 0.00 0.00

Powered by AerisWeather